STARLINK-33845, 63495

Orbit data source: Space-Track

STARLINK-33845, 63495 is a payload satellite owned by SpaceX/Seattle (US) in LEO that was launched on Mon, 07 Apr 2025 UTC via an FALCON 9 launch vehicle from the Air Force Western Test Range (AFWTR). Payload-class satellites include a variety of spacecraft equipped with specific instruments for various scientific and technological missions. These include communications satellites like Starlink; space stations such as the ISS; scientific satellites like the Hubble; Earth observation satellites from companies like Planet Labs, Umbra, and HawkEye 360; GPS; miniature CubeSats for education and research; and military/defense satellites.

Loading next visibility...
Identifier
63495, 2025-071C
Orbit
LEO
Country
Flag of USUS
Related business
Manufacturer
SpaceX/Seattle
Mission
Operational Commercial Communications
Bus & Motor
STARLINK V2MO, Unknown motor
Mass
575 kg wet, ~530 kg dry
Launch date (UTC)
2025-04-07 (1 year ago)
Launch vehicle
FALCON 9
Launch site
Air Force Western Test Range (AFWTR)
Object type
Payload
Rocket body
Debris
Shape & HBR
Box + 1 Pan, 17.7 m
Radar Cross Section
41.120 m², Large (>1 m²)

Expand to show TLE details & history
Last TLE update: 15 hours ago

TLE from 15 hours ago
0 STARLINK-33845
1 63495U 25071C   26262.79248288  .00007094  00000-0  22099-3 0  9993
2 63495  53.1605 317.2243 0002859  42.8952 317.2273 15.34387511 82480
Epoch: 2026-09-19T19:01Z
TLE epoch observation values (Epoch: 2026-09-19T19:01:10.520Z)
Latitude
-0.00006°
Longitude
33.23449°
Altitude
462.206 km
Speed
7.638 km/s
True Right ascension
21h 08m 53s
True Declination
0° 00' 00"
Sunlit
Object was in full shadow at epoch
Visualization orbit readout
Latitude
Unknown
Longitude
Unknown
Altitude
Unknown
Speed
Unknown
Apparent Right ascension
Unknown
Apparent Declination
Unknown
Sunlit
N/A
Visualization observer readout
Local Sidereal Time
02:42:37
Azimuth
Unknown
Elevation
Unknown
Doppler factor
Unknown
Orbital elements
Apogee altitude
464.953 km
Perigee altitude
461.041 km
Semi-major axis
6,841.134 km
Eccentricity
0.00029
Inclination
53.1605°
RAAN
317.2243°
Arg. of periapsis
42.8952°
True anomaly
317.20505°
Mean anomaly
317.2273°
Eccentric anomaly
317.21617°
Mean motion
3.83576 °/min
Orbital period
93.85 mins
BSTAR
0.00022099
Loading maneuver chart data...
Computing Atmospheric mass density...
Loading historical data...
Loading historical data...
Loading historical data...
Loading historical data...
Loading historical data...
Loading historical data...
Loading historical data...

Documentation

Showing up to 5 results
|